This is the latest recevied weather packets stored in our database for station/object N4TLC. If no packets are shown the sender has not sent any weather packets the latest 10 day(s).
| Time | Temp. | Humidity | Pressure | Rain* | Wind** | Luminosity | Snow |
|---|---|---|---|---|---|---|---|
| 1777922040 | 25.56° C | 32% | 1016.5 hPa | 0 mm | - | 913 W/m² | - |
| 1777921735 | 25.56° C | 33% | 1016.3 hPa | 0 mm | - | 926 W/m² | - |
| 1777921431 | 25° C | 33% | 1016.5 hPa | 0 mm | - | 931 W/m² | - |
| 1777921128 | 25° C | 32% | 1016.7 hPa | 0 mm | - | 938 W/m² | - |
| 1777920825 | 25° C | 33% | 1016.7 hPa | 0 mm | - | 955 W/m² | - |
| 1777920521 | 24.44° C | 34% | 1016.7 hPa | 0 mm | - | 965 W/m² | - |
| 1777920217 | 24.44° C | 34% | 1016.7 hPa | 0 mm | - | 974 W/m² | - |
| 1777919913 | 25° C | 33% | 1016.7 hPa | 0 mm | - | 980 W/m² | - |
| 1777919611 | 25° C | 34% | 1016.7 hPa | 0 mm | - | 982 W/m² | - |
| 1777919308 | 24.44° C | 35% | 1016.7 hPa | 0 mm | - | 994 W/m² | - |
| 1777919005 | 24.44° C | 35% | 1016.7 hPa | 0 mm | - | 994 W/m² | - |
| 1777918702 | 24.44° C | 34% | 1016.8 hPa | 0 mm | - | 1002 W/m² | - |
| 1777918400 | 24.44° C | 33% | 1016.9 hPa | 0 mm | - | 996 W/m² | - |
| 1777918099 | 23.89° C | 34% | 1016.9 hPa | 0 mm | - | 1010 W/m² | - |
| 1777917796 | 23.89° C | 34% | 1016.9 hPa | 0 mm | - | 1007 W/m² | - |
| 1777917494 | 23.89° C | 35% | 1017.1 hPa | 0 mm | - | 1019 W/m² | - |
| 1777917191 | 22.78° C | 35% | 1016.9 hPa | 0 mm | - | 1021 W/m² | - |
| 1777916889 | 23.33° C | 34% | 1017.3 hPa | 0 mm | - | 1022 W/m² | - |
| 1777916586 | 23.33° C | 35% | 1017.2 hPa | 0 mm | - | 1030 W/m² | - |
| 1777916283 | 23.33° C | 35% | 1017.1 hPa | 0 mm | - | 1032 W/m² | - |
| 1777915979 | 22.78° C | 35% | 1017.2 hPa | 0 mm | - | 1034 W/m² | - |
| 1777915676 | 22.78° C | 35% | 1017.4 hPa | 0 mm | - | 1041 W/m² | - |
| 1777915373 | 22.22° C | 35% | 1017.3 hPa | 0 mm | - | 1009 W/m² | - |
| 1777915069 | 22.22° C | 35% | 1017.3 hPa | 0 mm | - | 151 W/m² | - |
| 1777914766 | 22.22° C | 35% | 1017.2 hPa | 0 mm | - | 102 W/m² | - |
* Rain latest hour (hover to see other rain measurements)
** Current wind speed in m/s (hover to see current wind gust speed)